Cross City, FL

9:40 AM EST on December 14, 2019 (GMT -0500)
Cross City

Weather History for KCTY - October, 2019

Change the Weather History Date:

Thursday, October 3, 2019

  Actual Average Record
Temperature  
Mean Temperature 79 °F 74 °F  
Max Temperature 92 °F 85 °F 91 °F (2006)
Min Temperature 65 °F 63 °F 43 °F (2011)
Degree Days  
Heating Degree Days 0    
Month to date heating degree days 0  
Since 1 July heating degree days 0  
Cooling Degree Days 14    
Month to date cooling degree days 46  
Year to date cooling degree days 2803  
Growing Degree Days 28 (Base 50)    
Moisture  
Dew Point 68 °F    
Average Humidity 76    
Maximum Humidity 98    
Minimum Humidity 43    
Precipitation  
Precipitation 0.00 in 0.15 in 1.97 in (2012)
Month to date precipitation 0.00 0.47  
Year to date precipitation 47.47 40.30  
Sea Level Pressure  
Sea Level Pressure 30.01 in    
Wind  
Wind Speed 3 mph (ENE)    
Max Wind Speed 8 mph    
Max Gust Speed -    
Visibility 10 miles    
Events      
T = Trace of Precipitation, MM = Missing Value Source: NWS Daily Summary

Daily Weather History Graph

Daily Weather History Graph

Search for Another Location

Airport or City:

Astronomy

Oct. 03, 2019 Rise Set
Actual Time 7:26 AM EDT 7:15 PM EDT
Civil Twilight 7:02 AM EDT 7:39 PM EDT
Nautical Twilight 6:35 AM EDT 8:07 PM EDT
Astronomical Twilight 6:07 AM EDT 8:34 PM EDT
Moon 12:35 PM EDT (10/3) 11:16 PM EDT (10/3)
Length of Visible Light 12h 36m
Length of Day
11h 49m
Waxing Crescent, 29% of the Moon is Illuminated
Oct 3
Waxing Crescent
Oct 5
First Quarter
Oct 13
Full
Oct 21
Last Quarter
Oct 27
New

Hourly Weather History & Observations

Time (EDT) Temp. Heat Index Dew Point Humidity Pressure Visibility Wind Dir Wind Speed Gust Speed Precip Events Conditions
12:15 AM 71.6 °F - 69.4 °F 93% 30.01 in 10.0 mi Calm Calm - N/A   Unknown
12:35 AM 71.1 °F - 68.5 °F 92% 30.01 in 10.0 mi Calm Calm - N/A   Unknown
12:55 AM 70.7 °F - 68.5 °F 93% 30.01 in 10.0 mi Calm Calm - N/A   Unknown
1:15 AM 70.0 °F - 68.0 °F 93% 30.00 in 10.0 mi Calm Calm - N/A   Unknown
1:35 AM 69.3 °F - 67.8 °F 95% 30.00 in 10.0 mi Calm Calm - N/A   Unknown
1:55 AM 69.6 °F - 68.4 °F 96% 30.00 in 10.0 mi Calm Calm - N/A   Unknown
2:15 AM 69.4 °F - 68.4 °F 96% 29.99 in 10.0 mi Calm Calm - N/A   Unknown
2:35 AM 68.9 °F - 67.5 °F 95% 29.99 in 10.0 mi Calm Calm - N/A   Unknown
2:55 AM 68.5 °F - 67.1 °F 95% 29.98 in 10.0 mi Calm Calm - N/A   Unknown
3:15 AM 67.8 °F - 66.6 °F 96% 29.98 in 10.0 mi Calm Calm - N/A   Unknown
3:35 AM 67.8 °F - 66.9 °F 97% 29.98 in 10.0 mi Calm Calm - N/A   Unknown
3:55 AM 67.3 °F - 66.2 °F 96% 29.98 in 10.0 mi Calm Calm - N/A   Unknown
4:15 AM 67.1 °F - 65.8 °F 96% 29.98 in 10.0 mi Calm Calm - N/A   Unknown
4:35 AM 67.5 °F - 66.4 °F 96% 29.98 in 10.0 mi Calm Calm - N/A   Unknown
4:55 AM 66.4 °F - 65.3 °F 96% 29.98 in 2.0 mi Calm Calm - N/A   Mist
5:15 AM 66.2 °F - 65.3 °F 97% 29.98 in 10.0 mi NNE 3.5 mph - N/A   Unknown
5:35 AM 66.7 °F - 66.0 °F 98% 29.99 in 10.0 mi Calm Calm - N/A   Unknown
5:55 AM 66.6 °F - 65.8 °F 98% 30.00 in 10.0 mi Calm Calm - N/A   Unknown
6:15 AM 66.0 °F - 65.1 °F 97% 30.00 in 7.0 mi Calm Calm - N/A   Unknown
6:35 AM 65.8 °F - 65.1 °F 98% 30.01 in 0.8 mi Calm Calm - N/A   Mist
6:55 AM 66.0 °F - 65.1 °F 97% 30.02 in 10.0 mi Calm Calm - N/A   Unknown
7:15 AM 65.5 °F - 64.6 °F 97% 30.02 in 7.0 mi Calm Calm - N/A   Unknown
7:35 AM 65.8 °F - 64.8 °F 96% 30.03 in 10.0 mi Calm Calm - N/A   Unknown
7:55 AM 66.7 °F - 66.0 °F 98% 30.03 in 10.0 mi Calm Calm - N/A   Unknown
8:15 AM 68.5 °F - 67.8 °F 98% 30.03 in 10.0 mi NE 3.5 mph - N/A   Unknown
8:35 AM 70.7 °F - 69.6 °F 96% 30.04 in 10.0 mi NE 3.5 mph - N/A   Unknown
8:55 AM 72.7 °F - 71.2 °F 95% 30.04 in 10.0 mi Calm Calm - N/A   Unknown
9:15 AM 74.5 °F - 71.8 °F 91% 30.04 in 10.0 mi NE 3.5 mph - N/A   Unknown
9:35 AM 77.0 °F - 72.3 °F 85% 30.05 in 10.0 mi ESE 3.5 mph - N/A   Unknown
9:55 AM 78.8 °F - 71.6 °F 78% 30.05 in 10.0 mi East 3.5 mph - N/A   Unknown
10:15 AM 79.7 °F - 72.0 °F 77% 30.06 in 10.0 mi SE 4.6 mph - N/A   Unknown
10:35 AM 81.7 °F 86.3 °F 71.8 °F 72% 30.06 in 10.0 mi East 4.6 mph - N/A   Unknown
10:55 AM 82.9 °F 87.2 °F 70.7 °F 66% 30.06 in 10.0 mi ESE 4.6 mph - N/A   Unknown
11:15 AM 84.0 °F 87.8 °F 69.1 °F 61% 30.05 in 10.0 mi East 3.5 mph - N/A   Unknown
11:35 AM 84.4 °F 88.5 °F 69.4 °F 61% 30.05 in 10.0 mi East 4.6 mph - N/A   Unknown
11:55 AM 85.1 °F 89.4 °F 70.0 °F 60% 30.04 in 10.0 mi NNE 4.6 mph - N/A   Unknown
12:15 PM 84.0 °F 87.8 °F 69.3 °F 61% 30.04 in 10.0 mi East 6.9 mph - N/A   Unknown
12:35 PM 86.5 °F 91.0 °F 69.4 °F 57% 30.03 in 10.0 mi NE 8.1 mph - N/A   Unknown
12:55 PM 88.0 °F 92.9 °F 70.0 °F 55% 30.03 in 10.0 mi East 6.9 mph - N/A   Unknown
1:15 PM 87.4 °F 91.9 °F 69.6 °F 55% 30.03 in 10.0 mi NE 5.8 mph - N/A   Unknown
1:35 PM 86.5 °F 90.3 °F 68.7 °F 55% 30.02 in 10.0 mi East 6.9 mph - N/A   Unknown
1:55 PM 89.4 °F 94.0 °F 69.3 °F 51% 30.01 in 10.0 mi East 8.1 mph - N/A   Unknown
2:15 PM 89.2 °F 93.2 °F 68.5 °F 50% 30.00 in 10.0 mi East 8.1 mph - N/A   Unknown
2:35 PM 90.9 °F 94.8 °F 68.2 °F 47% 30.00 in 10.0 mi East 8.1 mph - N/A   Unknown
2:55 PM 88.9 °F 92.6 °F 68.0 °F 50% 29.99 in 10.0 mi NE 6.9 mph - N/A   Unknown
3:15 PM 90.7 °F 94.1 °F 67.5 °F 46% 29.98 in 10.0 mi ENE 8.1 mph - N/A   Unknown
3:35 PM 91.0 °F 95.2 °F 68.2 °F 47% 29.98 in 10.0 mi ENE 5.8 mph - N/A   Unknown
3:55 PM 89.6 °F 92.2 °F 66.2 °F 46% 29.98 in 10.0 mi NE 6.9 mph - N/A   Unknown
4:15 PM 91.2 °F 94.1 °F 66.6 °F 44% 29.97 in 10.0 mi East 8.1 mph - N/A   Unknown
4:35 PM 90.9 °F 94.4 °F 67.5 °F 46% 29.97 in 10.0 mi East 6.9 mph - N/A   Unknown
4:55 PM 90.7 °F 93.6 °F 66.4 °F 45% 29.96 in - East 6.9 mph - N/A   Unknown
5:15 PM 91.0 °F 94.7 °F 67.5 °F 46% 29.96 in 10.0 mi East 5.8 mph - N/A   Unknown
5:35 PM 90.5 °F 94.2 °F 67.6 °F 47% 29.96 in 10.0 mi ENE 4.6 mph - N/A   Unknown
5:55 PM 90.0 °F 93.2 °F 67.3 °F 47% 29.96 in 10.0 mi East 4.6 mph - N/A   Unknown
6:15 PM 88.9 °F 92.6 °F 67.8 °F 50% 29.96 in 10.0 mi East 5.8 mph - N/A   Unknown
6:35 PM 88.2 °F 91.7 °F 68.2 °F 51% 29.96 in 10.0 mi East 3.5 mph - N/A   Unknown
6:55 PM 86.5 °F 91.0 °F 69.6 °F 57% 29.97 in 10.0 mi East 3.5 mph - N/A   Unknown
7:15 PM 84.0 °F 88.4 °F 70.0 °F 63% 29.97 in 10.0 mi East 3.5 mph - N/A   Unknown
7:35 PM 81.5 °F 85.3 °F 70.3 °F 69% 29.97 in 10.0 mi Calm Calm - N/A   Unknown
7:55 PM 78.4 °F - 70.7 °F 77% 29.98 in 10.0 mi Calm Calm - N/A   Unknown
8:15 PM 77.4 °F - 70.0 °F 78% 29.98 in 10.0 mi Calm Calm - N/A   Unknown
8:35 PM 76.1 °F - 70.2 °F 82% 29.99 in 10.0 mi Calm Calm - N/A   Unknown
8:55 PM 76.6 °F - 69.1 °F 77% 30.00 in 10.0 mi East 3.5 mph - N/A   Unknown
9:15 PM 77.0 °F - 68.0 °F 74% 30.00 in 10.0 mi ENE 3.5 mph - N/A   Unknown
9:35 PM 74.5 °F - 68.7 °F 82% 30.01 in 10.0 mi Calm Calm - N/A   Unknown
9:55 PM 73.9 °F - 68.0 °F 82% 30.02 in 10.0 mi Calm Calm - N/A   Unknown
10:15 PM 73.4 °F - 68.0 °F 83% 30.03 in 10.0 mi Calm Calm - N/A   Unknown
10:35 PM 71.2 °F - 67.5 °F 88% 30.03 in 10.0 mi Calm Calm - N/A   Unknown
10:55 PM 70.3 °F - 66.9 °F 89% 30.03 in 10.0 mi Calm Calm - N/A   Unknown
11:15 PM 70.3 °F - 67.1 °F 89% 30.03 in 10.0 mi Calm Calm - N/A   Unknown
11:35 PM 70.0 °F - 67.8 °F 93% 30.04 in 10.0 mi Calm Calm - N/A   Unknown
11:55 PM 69.4 °F - 66.9 °F 92% 30.03 in 10.0 mi Calm Calm - N/A   Unknown